Flag for Argentina Weather past 2 weeks in Buenos Aires, Argentina

Now
64 °F

Clear.


Feels Like: 64 °F
Forecast: 56 / 71 °F
Wind: 7 mph from Northeast

Location: Buenos Aires Airport

Current Time: Apr 20, 2015 at 11:30:12 PM

Latest Report: Apr 20, 2015 at 11:00 PM


Visibility: 10 mi

Pressure: 30.04 "Hg

Humidity: 78%

Dew point: 57 °F

Location of Buenos AiresLocation

Historic Weather in Buenos Aires — Graph

°F

Buenos Aires temperature yesterday

Maximum temperature yesterday: 75 °F (at 3:00 PM)
Minimum temperature yesterday: 63 °F (at 5:00 AM)
Average temperature yesterday: 69 °F

Past Weeks' High & Low Weather Summary

 TemperatureHumidityPressure
High82 °F (Apr 10, 12:00 PM)100% (Apr 17, 2:00 AM)30.24 "Hg (Apr 17, 2:00 AM)
Low54 °F (Apr 6, 5:00 AM)27% (Apr 18, 2:00 PM)29.74 "Hg (Apr 19, 4:00 AM)
Average69 °F68%29.99 "Hg
* Reported Apr 5 10:00 PM — Apr 20 10:00 PM, Buenos Aires, Weather by CustomWeather, © 2015

Note: Actual official high and low records may vary slightly from our data, if they occured in-between our weather recording intervals... More about our weather records

Advertising

Buenos Aires weather history for previous 24 hours

 ConditionsComfort  
Time TempWeatherWind HumidityBarometerVisibility
10:00 PM
Mon, Apr 20
66 °FPassing clouds.5 mph68%30.04 "HgN/A
9:00 PM64 °FClear.3 mph73%30.04 "Hg10 mi
8:00 PM64 °FClear.3 mph73%30.01 "Hg10 mi
7:00 PM64 °FPassing clouds.5 mph68%29.98 "HgN/A
6:00 PM70 °FClear.5 mph53%29.98 "Hg10 mi
5:00 PM70 °FPassing clouds.5 mph53%29.95 "HgN/A
4:00 PM70 °FPassing clouds.6 mph53%29.95 "HgN/A
3:00 PM70 °FPassing clouds.6 mph50%29.92 "HgN/A
2:00 PM70 °FPassing clouds.8 mph46%29.92 "HgN/A
1:00 PM72 °FPassing clouds.12 mph38%29.95 "HgN/A
12:00 PM72 °FPassing clouds.12 mph31%29.95 "HgN/A
11:00 AM70 °FSunny.15 mph38%29.95 "Hg10 mi
10:00 AM68 °FSunny.12 mph43%29.95 "Hg10 mi
9:00 AM64 °FSunny.9 mph56%29.95 "Hg10 mi
8:00 AM63 °FSunny.10 mph59%29.92 "Hg10 mi
7:00 AM63 °FPassing clouds.9 mph64%29.89 "HgN/A
6:00 AM63 °FClear.12 mph73%29.89 "Hg10 mi
5:00 AM66 °FClear.9 mph73%29.86 "Hg10 mi
4:00 AM66 °FClear.12 mph73%29.86 "Hg10 mi
3:00 AM68 °FClear.13 mph73%29.86 "Hg10 mi
2:00 AM68 °FClear.15 mph78%29.86 "Hg10 mi
1:00 AM68 °FPartly cloudy.12 mph78%29.86 "HgN/A
12:00 AM68 °FPassing clouds.7 mph83%29.86 "HgN/A
11:00 PM
Sun, Apr 19
70 °FClear.8 mph73%29.83 "Hg10 mi
Weather by CustomWeather, © 2015

See weather overviewHow to use our weather pages